Home   Weather   Arth   Past weeks

Flag for Switzerland Past Weather in Arth, Schwyz, Switzerland — Yesterday and Last 2 Weeks

Now
61 °F

Overcast.


Feels Like: 61 °F
Forecast: 37 / 46 °F
Wind: 2 mph from West

Location: Altdorf

Current Time: Oct 1, 2016 at 12:25:15 PM

Latest Report: Oct 1, 2016 at 11:00 AM


Visibility: 16 mi

Pressure: 29.90 "Hg

Humidity: 77%

Dew Point: 53 °F

Location of ArthLocation

Past Weather in Arth — Graph

°F

Arth Temperature Yesterday

Maximum temperature yesterday: 69 °F (at 4:00 PM)
Minimum temperature yesterday: 50 °F (at 7:00 AM)
Average temperature yesterday: 59 °F

High & Low Weather Summary for the Past Weeks

 TemperatureHumidityPressure
High71 °F (Sep 29, 4:00 PM)100% (Sep 24, 7:00 AM)30.46 "Hg (Sep 24, 7:00 AM)
Low46 °F (Sep 25, 6:00 AM)51% (Sep 30, 4:00 PM)29.90 "Hg (Oct 1, 11:00 AM)
Average58 °F84%30.14 "Hg
* Reported Sep 16 11:00 AM — Oct 1 11:00 AM, Arth, Weather by CustomWeather, © 2016

Note: Actual official high and low records may vary slightly from our data, if they occured in-between our weather recording intervals... More about our weather records

Advertising

Arth Weather History for the Previous 24 Hours

Scroll right to see more
 ConditionsComfort  
Time TempWeatherWind HumidityBarometerVisibility
11:00 AM
Sat, Oct 1
61 °FOvercast.2 mph77%29.90 "Hg16 mi
10:00 AM58 °FCool.1 mph82%29.91 "HgN/A
9:00 AM53 °FCool.1 mph91%29.93 "HgN/A
8:00 AM52 °FScattered clouds.2 mph90%29.94 "Hg16 mi
7:00 AM51 °FCool.1 mph93%29.93 "HgN/A
6:00 AM53 °FCool.1 mph88%29.93 "HgN/A
5:00 AM55 °FClear.1 mph86%29.93 "Hg16 mi
4:00 AM55 °FCool.1 mph85%29.94 "HgN/A
3:00 AM54 °FCool.2 mph86%29.96 "HgN/A
2:00 AM55 °FClear.1 mph82%29.95 "Hg16 mi
1:00 AM53 °FCool.2 mph88%29.97 "HgN/A
12:00 AM54 °FCool.2 mph86%29.98 "HgN/A
11:00 PM
Fri, Sep 30
56 °FClear.1 mph81%30.00 "Hg16 mi
10:00 PM55 °FCool.1 mph82%30.01 "HgN/A
8:00 PM61 °FPassing clouds.3 mph71%30.00 "Hg14 mi
7:00 PM64 °FMild.5 mph68%29.99 "HgN/A
6:00 PM65 °FMild.3 mph72%29.98 "HgN/A
5:00 PM67 °FScattered clouds.2 mph59%29.98 "Hg12 mi
4:00 PM69 °FMild.1 mph51%29.97 "HgN/A
3:00 PM69 °FMild.5 mph57%29.98 "HgN/A
2:00 PM68 °FPassing clouds.5 mph58%30.00 "Hg16 mi
1:00 PM67 °FMild.5 mph63%30.03 "HgN/A
12:00 PM65 °FMild.3 mph69%30.06 "HgN/A
Weather by CustomWeather, © 2016

See weather overviewHow to use our weather pages